Year,Month,Day,Hour,Minute,Value (Times are PST for barometer in hPa)
2022,12,27,00,00,978.53
2022,12,27,00,01,978.50
2022,12,27,00,02,978.50
2022,12,27,00,03,978.43
2022,12,27,00,04,978.43
2022,12,27,00,05,978.40
2022,12,27,00,06,978.43
2022,12,27,00,07,978.40
2022,12,27,00,08,978.36
2022,12,27,00,09,978.33
2022,12,27,00,10,978.33
2022,12,27,00,11,978.29
2022,12,27,00,12,978.26
2022,12,27,00,13,978.26
2022,12,27,00,14,978.23
2022,12,27,00,15,978.16
2022,12,27,00,16,978.12
2022,12,27,00,17,978.12
2022,12,27,00,18,978.09
2022,12,27,00,19,978.12
2022,12,27,00,20,978.06
2022,12,27,00,21,978.02
2022,12,27,00,22,977.99
2022,12,27,00,23,977.96
2022,12,27,00,24,977.89
2022,12,27,00,25,977.92
2022,12,27,00,26,977.96
2022,12,27,00,27,977.92
2022,12,27,00,28,977.99
2022,12,27,00,29,977.96
2022,12,27,00,30,977.89
2022,12,27,00,31,977.92
2022,12,27,00,32,977.85
2022,12,27,00,33,977.85
2022,12,27,00,34,977.82
2022,12,27,00,35,977.79
2022,12,27,00,36,977.85
2022,12,27,00,37,977.89
2022,12,27,00,38,977.79
2022,12,27,00,39,977.72
2022,12,27,00,40,977.75
2022,12,27,00,41,977.79
2022,12,27,00,42,977.89
2022,12,27,00,43,977.89
2022,12,27,00,44,977.89
2022,12,27,00,45,977.79
2022,12,27,00,46,977.82
2022,12,27,00,47,977.79
2022,12,27,00,48,977.75
2022,12,27,00,49,977.75
2022,12,27,00,50,977.68
2022,12,27,00,51,977.65
2022,12,27,00,52,977.62
2022,12,27,00,53,977.58
2022,12,27,00,54,977.48
2022,12,27,00,55,977.45
2022,12,27,00,56,977.37
2022,12,27,00,57,977.21
2022,12,27,00,58,977.18
2022,12,27,00,59,977.18
2022,12,27,01,00,977.21
2022,12,27,01,01,977.21
2022,12,27,01,02,977.24
2022,12,27,01,03,977.28
2022,12,27,01,04,977.35
2022,12,27,01,05,977.35
2022,12,27,01,06,977.38
2022,12,27,01,07,977.45
2022,12,27,01,08,977.45
2022,12,27,01,09,977.37
2022,12,27,01,10,977.14
2022,12,27,01,11,977.04
2022,12,27,01,12,976.97
2022,12,27,01,13,976.97
2022,12,27,01,14,976.94
2022,12,27,01,15,976.87
2022,12,27,01,16,976.84
2022,12,27,01,17,976.87
2022,12,27,01,18,976.87
2022,12,27,01,19,976.84
2022,12,27,01,20,976.87
2022,12,27,01,21,976.80
2022,12,27,01,22,976.84
2022,12,27,01,23,976.80
2022,12,27,01,24,976.84
2022,12,27,01,25,976.77
2022,12,27,01,26,976.70
2022,12,27,01,27,976.74
2022,12,27,01,28,976.67
2022,12,27,01,29,976.60
2022,12,27,01,30,976.57
2022,12,27,01,31,976.63
2022,12,27,01,32,976.63
2022,12,27,01,33,976.60
2022,12,27,01,34,976.57
2022,12,27,01,35,976.47
2022,12,27,01,36,976.50
2022,12,27,01,37,976.43
2022,12,27,01,38,976.36
2022,12,27,01,39,976.30
2022,12,27,01,40,976.30
2022,12,27,01,41,976.30
2022,12,27,01,42,976.26
2022,12,27,01,43,976.26
2022,12,27,01,44,976.30
2022,12,27,01,45,976.23
2022,12,27,01,46,976.23
2022,12,27,01,47,976.19
2022,12,27,01,48,976.16
2022,12,27,01,49,976.16
2022,12,27,01,50,976.18
2022,12,27,01,51,976.09
2022,12,27,01,52,976.09
2022,12,27,01,53,976.09
2022,12,27,01,54,976.09
2022,12,27,01,55,976.16
2022,12,27,01,56,976.16
2022,12,27,01,57,976.16
2022,12,27,01,58,976.23
2022,12,27,01,59,976.26
2022,12,27,02,00,976.26
2022,12,27,02,01,976.26
2022,12,27,02,02,976.30
2022,12,27,02,03,976.23
2022,12,27,02,04,976.19
2022,12,27,02,05,976.23
2022,12,27,02,06,976.16
2022,12,27,02,07,976.09
2022,12,27,02,08,976.09
2022,12,27,02,09,976.09
2022,12,27,02,10,976.09
2022,12,27,02,11,976.06
2022,12,27,02,12,976.02
2022,12,27,02,13,975.92
2022,12,27,02,14,975.99
2022,12,27,02,15,975.92
2022,12,27,02,16,975.92
2022,12,27,02,17,975.86
2022,12,27,02,18,975.96
2022,12,27,02,19,975.96
2022,12,27,02,20,976.02
2022,12,27,02,21,975.92
2022,12,27,02,22,975.92
2022,12,27,02,23,975.99
2022,12,27,02,24,975.99
2022,12,27,02,25,975.96
2022,12,27,02,26,975.96
2022,12,27,02,27,975.99
2022,12,27,02,28,975.99
2022,12,27,02,29,975.99
2022,12,27,02,30,975.96
2022,12,27,02,31,975.92
2022,12,27,02,32,975.96
2022,12,27,02,33,975.99
2022,12,27,02,34,975.99
2022,12,27,02,35,975.96
2022,12,27,02,36,975.89
2022,12,27,02,37,975.79
2022,12,27,02,38,975.82
2022,12,27,02,39,975.79
2022,12,27,02,40,975.75
2022,12,27,02,41,975.69
2022,12,27,02,42,975.62
2022,12,27,02,43,975.65
2022,12,27,02,44,975.65
2022,12,27,02,45,975.72
2022,12,27,02,46,975.74
2022,12,27,02,47,975.65
2022,12,27,02,48,975.65
2022,12,27,02,49,975.59
2022,12,27,02,50,975.59
2022,12,27,02,51,975.52
2022,12,27,02,52,975.55
2022,12,27,02,53,975.54
2022,12,27,02,54,975.45
2022,12,27,02,55,975.42
2022,12,27,02,56,975.48
2022,12,27,02,57,975.45
2022,12,27,02,58,975.38
2022,12,27,02,59,975.31
2022,12,27,03,00,975.25
2022,12,27,03,01,975.21
2022,12,27,03,02,975.21
2022,12,27,03,03,975.14
2022,12,27,03,04,975.08
2022,12,27,03,05,975.11
2022,12,27,03,06,975.04
2022,12,27,03,07,975.04
2022,12,27,03,08,975.08
2022,12,27,03,09,975.11
2022,12,27,03,10,975.08
2022,12,27,03,11,975.04
2022,12,27,03,12,975.04
2022,12,27,03,13,975.08
2022,12,27,03,14,975.08
2022,12,27,03,15,975.01
2022,12,27,03,16,974.94
2022,12,27,03,17,974.87
2022,12,27,03,18,974.84
2022,12,27,03,19,974.77
2022,12,27,03,20,974.77
2022,12,27,03,21,974.81
2022,12,27,03,22,974.87
2022,12,27,03,23,974.84
2022,12,27,03,24,974.94
2022,12,27,03,25,974.87
2022,12,27,03,26,974.95
2022,12,27,03,27,975.04
2022,12,27,03,28,975.04
2022,12,27,03,29,975.04
2022,12,27,03,30,974.98
2022,12,27,03,31,974.91
2022,12,27,03,32,974.87
2022,12,27,03,33,974.87
2022,12,27,03,34,974.91
2022,12,27,03,35,974.91
2022,12,27,03,36,974.87
2022,12,27,03,37,974.84
2022,12,27,03,38,974.67
2022,12,27,03,39,974.64
2022,12,27,03,40,974.64
2022,12,27,03,41,974.57
2022,12,27,03,42,974.50
2022,12,27,03,43,974.47
2022,12,27,03,44,974.47
2022,12,27,03,45,974.40
2022,12,27,03,46,974.37
2022,12,27,03,47,974.40
2022,12,27,03,48,974.40
2022,12,27,03,49,974.37
2022,12,27,03,50,974.40
2022,12,27,03,51,974.40
2022,12,27,03,52,974.33
2022,12,27,03,53,974.33
2022,12,27,03,54,974.40
2022,12,27,03,55,974.37
2022,12,27,03,56,974.47
2022,12,27,03,57,974.50
2022,12,27,03,58,974.47
2022,12,27,03,59,974.50
2022,12,27,04,00,974.43
2022,12,27,04,01,974.30
2022,12,27,04,02,974.22
2022,12,27,04,03,974.10
2022,12,27,04,04,974.03
2022,12,27,04,05,973.96
2022,12,27,04,06,973.86
2022,12,27,04,07,973.82
2022,12,27,04,08,973.89
2022,12,27,04,09,974.03
2022,12,27,04,10,974.03
2022,12,27,04,11,974.10
2022,12,27,04,12,974.10
2022,12,27,04,13,974.06
2022,12,27,04,14,974.06
2022,12,27,04,15,974.06
2022,12,27,04,16,974.03
2022,12,27,04,17,974.06
2022,12,27,04,18,973.96
2022,12,27,04,19,973.96
2022,12,27,04,20,973.93
2022,12,27,04,21,973.99
2022,12,27,04,22,974.03
2022,12,27,04,23,973.99
2022,12,27,04,24,974.03
2022,12,27,04,25,973.99
2022,12,27,04,26,973.93
2022,12,27,04,27,973.89
2022,12,27,04,28,973.93
2022,12,27,04,29,973.93
2022,12,27,04,30,973.93
2022,12,27,04,31,973.89
2022,12,27,04,32,973.89
2022,12,27,04,33,973.93
2022,12,27,04,34,973.93
2022,12,27,04,35,973.86
2022,12,27,04,36,973.79
2022,12,27,04,37,973.79
2022,12,27,04,38,973.76
2022,12,27,04,39,973.72
2022,12,27,04,40,973.72
2022,12,27,04,41,973.69
2022,12,27,04,42,973.76
2022,12,27,04,43,973.76
2022,12,27,04,44,973.72
2022,12,27,04,45,973.65
2022,12,27,04,46,973.62
2022,12,27,04,47,973.62
2022,12,27,04,48,973.59
2022,12,27,04,49,973.62
2022,12,27,04,50,973.61
2022,12,27,04,51,973.52
2022,12,27,04,52,973.45
2022,12,27,04,53,973.42
2022,12,27,04,54,973.38
2022,12,27,04,55,973.45
2022,12,27,04,56,973.45
2022,12,27,04,57,973.45
2022,12,27,04,58,973.38
2022,12,27,04,59,973.32
2022,12,27,05,00,973.32
2022,12,27,05,01,973.32
2022,12,27,05,02,973.32
2022,12,27,05,03,973.35
2022,12,27,05,04,973.35
2022,12,27,05,05,973.35
2022,12,27,05,06,973.38
2022,12,27,05,07,973.38
2022,12,27,05,08,973.42
2022,12,27,05,09,973.42
2022,12,27,05,10,973.42
2022,12,27,05,11,973.45
2022,12,27,05,12,973.45
2022,12,27,05,13,973.45
2022,12,27,05,14,973.45
2022,12,27,05,15,973.45
2022,12,27,05,16,973.45
2022,12,27,05,17,973.49
2022,12,27,05,18,973.49
2022,12,27,05,19,973.52
2022,12,27,05,20,973.59
2022,12,27,05,21,973.55
2022,12,27,05,22,973.52
2022,12,27,05,23,973.49
2022,12,27,05,24,973.45
2022,12,27,05,25,973.38
2022,12,27,05,26,973.28
2022,12,27,05,27,973.21
2022,12,27,05,28,973.18
2022,12,27,05,29,973.18
2022,12,27,05,30,973.15
2022,12,27,05,31,973.15
2022,12,27,05,32,973.15
2022,12,27,05,33,973.15
2022,12,27,05,34,973.15
2022,12,27,05,35,973.11
2022,12,27,05,36,973.08
2022,12,27,05,37,973.08
2022,12,27,05,38,973.11
2022,12,27,05,39,973.08
2022,12,27,05,40,973.15
2022,12,27,05,41,973.15
2022,12,27,05,42,973.18
2022,12,27,05,43,973.21
2022,12,27,05,44,973.15
2022,12,27,05,45,973.11
2022,12,27,05,46,973.11
2022,12,27,05,47,973.11
2022,12,27,05,48,973.11
2022,12,27,05,49,973.11
2022,12,27,05,50,973.08
2022,12,27,05,51,973.05
2022,12,27,05,52,973.08
2022,12,27,05,53,973.08
2022,12,27,05,54,973.05
2022,12,27,05,55,973.05
2022,12,27,05,56,973.05
2022,12,27,05,57,973.08
2022,12,27,05,58,973.05
2022,12,27,05,59,973.05
2022,12,27,06,00,973.08
2022,12,27,06,01,973.08
2022,12,27,06,02,973.08
2022,12,27,06,03,973.05
2022,12,27,06,04,973.08
2022,12,27,06,05,973.15
2022,12,27,06,06,973.18
2022,12,27,06,07,973.21
2022,12,27,06,08,973.28
2022,12,27,06,09,973.32
2022,12,27,06,10,973.38
2022,12,27,06,11,973.38
2022,12,27,06,12,973.35
2022,12,27,06,13,973.41
2022,12,27,06,14,973.32
2022,12,27,06,15,973.32
2022,12,27,06,16,973.25
2022,12,27,06,17,973.25
2022,12,27,06,18,973.18
2022,12,27,06,19,973.11
2022,12,27,06,20,973.01
2022,12,27,06,21,972.88
2022,12,27,06,22,972.84
2022,12,27,06,23,972.81
2022,12,27,06,24,972.88
2022,12,27,06,25,972.91
2022,12,27,06,26,972.91
2022,12,27,06,27,972.98
2022,12,27,06,28,973.01
2022,12,27,06,29,973.05
2022,12,27,06,30,973.11
2022,12,27,06,31,973.15
2022,12,27,06,32,973.18
2022,12,27,06,33,973.25
2022,12,27,06,34,973.21
2022,12,27,06,35,973.28
2022,12,27,06,36,973.28
2022,12,27,06,37,973.32
2022,12,27,06,38,973.35
2022,12,27,06,39,973.32
2022,12,27,06,40,973.38
2022,12,27,06,41,973.42
2022,12,27,06,42,973.42
2022,12,27,06,43,973.42
2022,12,27,06,44,973.42
2022,12,27,06,45,973.38
2022,12,27,06,46,973.38
2022,12,27,06,47,973.28
2022,12,27,06,48,973.28
2022,12,27,06,49,973.25
2022,12,27,06,50,973.28
2022,12,27,06,51,973.32
2022,12,27,06,52,973.35
2022,12,27,06,53,973.35
2022,12,27,06,54,973.35
2022,12,27,06,55,973.38
2022,12,27,06,56,973.32
2022,12,27,06,57,973.38
2022,12,27,06,58,973.35
2022,12,27,06,59,973.32
2022,12,27,07,00,973.32
2022,12,27,07,01,973.25
2022,12,27,07,02,973.28
2022,12,27,07,03,973.28
2022,12,27,07,04,973.25
2022,12,27,07,05,973.25
2022,12,27,07,06,973.21
2022,12,27,07,07,973.25
2022,12,27,07,08,973.28
2022,12,27,07,09,973.28
2022,12,27,07,10,973.32
2022,12,27,07,11,973.32
2022,12,27,07,12,973.28
2022,12,27,07,13,973.28
2022,12,27,07,14,973.28
2022,12,27,07,15,973.28
2022,12,27,07,16,973.28
2022,12,27,07,17,973.35
2022,12,27,07,18,973.35
2022,12,27,07,19,973.35
2022,12,27,07,20,973.35
2022,12,27,07,21,973.42
2022,12,27,07,22,973.42
2022,12,27,07,23,973.38
2022,12,27,07,24,973.38
2022,12,27,07,25,973.38
2022,12,27,07,26,973.38
2022,12,27,07,27,973.35
2022,12,27,07,28,973.35
2022,12,27,07,29,973.32
2022,12,27,07,30,973.32
2022,12,27,07,31,973.35
2022,12,27,07,32,973.32
2022,12,27,07,33,973.32
2022,12,27,07,34,973.28
2022,12,27,07,35,973.32
2022,12,27,07,36,973.32
2022,12,27,07,37,973.35
2022,12,27,07,38,973.35
2022,12,27,07,39,973.35
2022,12,27,07,40,973.38
2022,12,27,07,41,973.38
2022,12,27,07,42,973.38
2022,12,27,07,43,973.45
2022,12,27,07,44,973.45
2022,12,27,07,45,973.49
2022,12,27,07,46,973.49
2022,12,27,07,47,973.52
2022,12,27,07,48,973.55
2022,12,27,07,49,973.55
2022,12,27,07,50,973.55
2022,12,27,07,51,973.55
2022,12,27,07,52,973.55
2022,12,27,07,53,973.55
2022,12,27,07,54,973.52
2022,12,27,07,55,973.59
2022,12,27,07,56,973.59
2022,12,27,07,57,973.59
2022,12,27,07,58,973.62
2022,12,27,07,59,973.62
2022,12,27,08,00,973.65
2022,12,27,08,01,973.62
2022,12,27,08,02,973.65
2022,12,27,08,03,973.65
2022,12,27,08,04,973.65
2022,12,27,08,05,973.65
2022,12,27,08,06,973.69
2022,12,27,08,07,973.69
2022,12,27,08,08,973.69
2022,12,27,08,09,973.69
2022,12,27,08,10,973.69
2022,12,27,08,11,973.76
2022,12,27,08,12,973.76
2022,12,27,08,13,973.72
2022,12,27,08,14,973.72
2022,12,27,08,15,973.72
2022,12,27,08,16,973.72
2022,12,27,08,17,973.72
2022,12,27,08,18,973.76
2022,12,27,08,19,973.79
2022,12,27,08,20,973.72
2022,12,27,08,21,973.76
2022,12,27,08,22,973.76
2022,12,27,08,23,973.79
2022,12,27,08,24,973.76
2022,12,27,08,25,973.76
2022,12,27,08,26,973.79
2022,12,27,08,27,973.79
2022,12,27,08,28,973.82
2022,12,27,08,29,973.82
2022,12,27,08,30,973.82
2022,12,27,08,31,973.86
2022,12,27,08,32,973.86
2022,12,27,08,33,973.86
2022,12,27,08,34,973.89
2022,12,27,08,35,973.89
2022,12,27,08,36,973.89
2022,12,27,08,37,973.89
2022,12,27,08,38,973.93
2022,12,27,08,39,973.93
2022,12,27,08,40,973.96
2022,12,27,08,41,973.96
2022,12,27,08,42,973.99
2022,12,27,08,43,973.96
2022,12,27,08,44,973.96
2022,12,27,08,45,973.99
2022,12,27,08,46,973.99
2022,12,27,08,47,973.99
2022,12,27,08,48,974.03
2022,12,27,08,49,974.06
2022,12,27,08,50,974.13
2022,12,27,08,51,974.16
2022,12,27,08,52,974.20
2022,12,27,08,53,974.20
2022,12,27,08,54,974.20
2022,12,27,08,55,974.23
2022,12,27,08,56,974.26
2022,12,27,08,57,974.30
2022,12,27,08,58,974.33
2022,12,27,08,59,974.33
2022,12,27,09,00,974.33
2022,12,27,09,01,974.30
2022,12,27,09,02,974.33
2022,12,27,09,03,974.40
2022,12,27,09,04,974.40
2022,12,27,09,05,974.40
2022,12,27,09,06,974.40
2022,12,27,09,07,974.43
2022,12,27,09,08,974.50
2022,12,27,09,09,974.43
2022,12,27,09,10,974.50
2022,12,27,09,11,974.54
2022,12,27,09,12,974.54
2022,12,27,09,13,974.57
2022,12,27,09,14,974.54
2022,12,27,09,15,974.54
2022,12,27,09,16,974.57
2022,12,27,09,17,974.60
2022,12,27,09,18,974.60
2022,12,27,09,19,974.57
2022,12,27,09,20,974.60
2022,12,27,09,21,974.57
2022,12,27,09,22,974.60
2022,12,27,09,23,974.64
2022,12,27,09,24,974.64
2022,12,27,09,25,974.67
2022,12,27,09,26,974.64
2022,12,27,09,27,974.67
2022,12,27,09,28,974.67
2022,12,27,09,29,974.67
2022,12,27,09,30,974.77
2022,12,27,09,31,974.74
2022,12,27,09,32,974.77
2022,12,27,09,33,974.77
2022,12,27,09,34,974.81
2022,12,27,09,35,974.81
2022,12,27,09,36,974.81
2022,12,27,09,37,974.87
2022,12,27,09,38,974.87
2022,12,27,09,39,974.87
2022,12,27,09,40,974.87
2022,12,27,09,41,974.87
2022,12,27,09,42,974.98
2022,12,27,09,43,974.98
2022,12,27,09,44,975.01
2022,12,27,09,45,975.01
2022,12,27,09,46,975.01
2022,12,27,09,47,975.04
2022,12,27,09,48,975.04
2022,12,27,09,49,975.04
2022,12,27,09,50,975.04
2022,12,27,09,51,975.08
2022,12,27,09,52,975.11
2022,12,27,09,53,975.11
2022,12,27,09,54,975.14
2022,12,27,09,55,975.14
2022,12,27,09,56,975.11
2022,12,27,09,57,975.18
2022,12,27,09,58,975.18
2022,12,27,09,59,975.14
2022,12,27,10,00,975.18
2022,12,27,10,01,975.18
2022,12,27,10,02,975.21
2022,12,27,10,03,975.25
2022,12,27,10,04,975.31
2022,12,27,10,05,975.28
2022,12,27,10,06,975.31
2022,12,27,10,07,975.35
2022,12,27,10,08,975.35
2022,12,27,10,09,975.38
2022,12,27,10,10,975.42
2022,12,27,10,11,975.38
2022,12,27,10,12,975.42
2022,12,27,10,13,975.42
2022,12,27,10,14,975.45
2022,12,27,10,15,975.48
2022,12,27,10,16,975.48
2022,12,27,10,17,975.45
2022,12,27,10,18,975.45
2022,12,27,10,19,975.52
2022,12,27,10,20,975.52
2022,12,27,10,21,975.52
2022,12,27,10,22,975.52
2022,12,27,10,23,975.55
2022,12,27,10,24,975.59
2022,12,27,10,25,975.59
2022,12,27,10,26,975.62
2022,12,27,10,27,975.65
2022,12,27,10,28,975.65
2022,12,27,10,29,975.65
2022,12,27,10,30,975.62
2022,12,27,10,31,975.65
2022,12,27,10,32,975.69
2022,12,27,10,33,975.69
2022,12,27,10,34,975.72
2022,12,27,10,35,975.75
2022,12,27,10,36,975.75
2022,12,27,10,37,975.75
2022,12,27,10,38,975.79
2022,12,27,10,39,975.82
2022,12,27,10,40,975.79
2022,12,27,10,41,975.79
2022,12,27,10,42,975.89
2022,12,27,10,43,975.86
2022,12,27,10,44,975.89
2022,12,27,10,45,975.86
2022,12,27,10,46,975.86
2022,12,27,10,47,975.89
2022,12,27,10,48,975.82
2022,12,27,10,49,975.86
2022,12,27,10,50,975.89
2022,12,27,10,51,975.89
2022,12,27,10,52,975.96
2022,12,27,10,53,975.96
2022,12,27,10,54,975.99
2022,12,27,10,55,975.96
2022,12,27,10,56,975.99
2022,12,27,10,57,975.99
2022,12,27,10,58,975.96
2022,12,27,10,59,975.96
2022,12,27,11,00,975.99
2022,12,27,11,01,976.03
2022,12,27,11,02,976.06
2022,12,27,11,03,976.06
2022,12,27,11,04,976.06
2022,12,27,11,05,976.06
2022,12,27,11,06,976.06
2022,12,27,11,07,976.09
2022,12,27,11,08,976.06
2022,12,27,11,09,976.13
2022,12,27,11,10,976.13
2022,12,27,11,11,976.06
2022,12,27,11,12,976.09
2022,12,27,11,13,976.13
2022,12,27,11,14,976.13
2022,12,27,11,15,976.13
2022,12,27,11,16,976.13
2022,12,27,11,17,976.09
2022,12,27,11,18,976.13
2022,12,27,11,19,976.16
2022,12,27,11,20,976.13
2022,12,27,11,21,976.16
2022,12,27,11,22,976.16
2022,12,27,11,23,976.19
2022,12,27,11,24,976.23
2022,12,27,11,25,976.19
2022,12,27,11,26,976.26
2022,12,27,11,27,976.23
2022,12,27,11,28,976.23
2022,12,27,11,29,976.23
2022,12,27,11,30,976.26
2022,12,27,11,31,976.23
2022,12,27,11,32,976.26
2022,12,27,11,33,976.26
2022,12,27,11,34,976.19
2022,12,27,11,35,976.26
2022,12,27,11,36,976.23
2022,12,27,11,37,976.26
2022,12,27,11,38,976.30
2022,12,27,11,39,976.30
2022,12,27,11,40,976.30
2022,12,27,11,41,976.33
2022,12,27,11,42,976.33
2022,12,27,11,43,976.36
2022,12,27,11,44,976.36
2022,12,27,11,45,976.33
2022,12,27,11,46,976.33
2022,12,27,11,47,976.40
2022,12,27,11,48,976.40
2022,12,27,11,49,976.40
2022,12,27,11,50,976.43
2022,12,27,11,51,976.53
2022,12,27,11,52,976.47
2022,12,27,11,53,976.50
2022,12,27,11,54,976.50
2022,12,27,11,55,976.50
2022,12,27,11,56,976.53
2022,12,27,11,57,976.50
2022,12,27,11,58,976.53
2022,12,27,11,59,976.53
2022,12,27,12,00,976.53
2022,12,27,12,01,976.53
2022,12,27,12,02,976.60
2022,12,27,12,03,976.60
2022,12,27,12,04,976.57
2022,12,27,12,05,976.53
2022,12,27,12,06,976.60
2022,12,27,12,07,976.60
2022,12,27,12,08,976.63
2022,12,27,12,09,976.63
2022,12,27,12,10,976.67
2022,12,27,12,11,976.67
2022,12,27,12,12,976.67
2022,12,27,12,13,976.67
2022,12,27,12,14,976.63
2022,12,27,12,15,976.67
2022,12,27,12,16,976.67
2022,12,27,12,17,976.67
2022,12,27,12,18,976.70
2022,12,27,12,19,976.77
2022,12,27,12,20,976.77
2022,12,27,12,21,976.80
2022,12,27,12,22,976.80
2022,12,27,12,23,976.84
2022,12,27,12,24,976.80
2022,12,27,12,25,976.80
2022,12,27,12,26,976.84
2022,12,27,12,27,976.84
2022,12,27,12,28,976.87
2022,12,27,12,29,976.87
2022,12,27,12,30,976.91
2022,12,27,12,31,976.91
2022,12,27,12,32,976.94
2022,12,27,12,33,976.94
2022,12,27,12,34,976.94
2022,12,27,12,35,976.94
2022,12,27,12,36,976.97
2022,12,27,12,37,976.97
2022,12,27,12,38,976.97
2022,12,27,12,39,977.01
2022,12,27,12,40,977.04
2022,12,27,12,41,977.04
2022,12,27,12,42,977.04
2022,12,27,12,43,977.04
2022,12,27,12,44,977.08
2022,12,27,12,45,977.08
2022,12,27,12,46,977.08
2022,12,27,12,47,977.11
2022,12,27,12,48,977.14
2022,12,27,12,49,977.21
2022,12,27,12,50,977.24
2022,12,27,12,51,977.24
2022,12,27,12,52,977.24
2022,12,27,12,53,977.28
2022,12,27,12,54,977.28
2022,12,27,12,55,977.28
2022,12,27,12,56,977.31
2022,12,27,12,57,977.28
2022,12,27,12,58,977.31
2022,12,27,12,59,977.35
2022,12,27,13,00,977.38
2022,12,27,13,01,977.41
2022,12,27,13,02,977.41
2022,12,27,13,03,977.41
2022,12,27,13,04,977.41
2022,12,27,13,05,977.38
2022,12,27,13,06,977.41
2022,12,27,13,07,977.45
2022,12,27,13,08,977.41
2022,12,27,13,09,977.45
2022,12,27,13,10,977.48
2022,12,27,13,11,977.48
2022,12,27,13,12,977.45
2022,12,27,13,13,977.48
2022,12,27,13,14,977.52
2022,12,27,13,15,977.52
2022,12,27,13,16,977.52
2022,12,27,13,17,977.55
2022,12,27,13,18,977.55
2022,12,27,13,19,977.55
2022,12,27,13,20,977.55
2022,12,27,13,21,977.58
2022,12,27,13,22,977.58
2022,12,27,13,23,977.62
2022,12,27,13,24,977.62
2022,12,27,13,25,977.62
2022,12,27,13,26,977.68
2022,12,27,13,27,977.72
2022,12,27,13,28,977.72
2022,12,27,13,29,977.79
2022,12,27,13,30,977.75
2022,12,27,13,31,977.79
2022,12,27,13,32,977.82
2022,12,27,13,33,977.82
2022,12,27,13,34,977.82
2022,12,27,13,35,977.85
2022,12,27,13,36,977.85
2022,12,27,13,37,977.89
2022,12,27,13,38,977.96
2022,12,27,13,39,977.92
2022,12,27,13,40,977.96
2022,12,27,13,41,977.96
2022,12,27,13,42,978.02
2022,12,27,13,43,978.02
2022,12,27,13,44,978.09
2022,12,27,13,45,978.06
2022,12,27,13,46,978.09
2022,12,27,13,47,978.09
2022,12,27,13,48,978.12
2022,12,27,13,49,978.12
2022,12,27,13,50,978.12
2022,12,27,13,51,978.16
2022,12,27,13,52,978.12
2022,12,27,13,53,978.19
2022,12,27,13,54,978.19
2022,12,27,13,55,978.23
2022,12,27,13,56,978.23
2022,12,27,13,57,978.23
2022,12,27,13,58,978.26
2022,12,27,13,59,978.26
2022,12,27,14,00,978.29
2022,12,27,14,01,978.26
2022,12,27,14,02,978.29
2022,12,27,14,03,978.36
2022,12,27,14,04,978.33
2022,12,27,14,05,978.36
2022,12,27,14,06,978.40
2022,12,27,14,07,978.46
2022,12,27,14,08,978.40
2022,12,27,14,09,978.46
2022,12,27,14,10,978.50
2022,12,27,14,11,978.50
2022,12,27,14,12,978.50
2022,12,27,14,13,978.46
2022,12,27,14,14,978.53
2022,12,27,14,15,978.53
2022,12,27,14,16,978.57
2022,12,27,14,17,978.53
2022,12,27,14,18,978.63
2022,12,27,14,19,978.67
2022,12,27,14,20,978.67
2022,12,27,14,21,978.67
2022,12,27,14,22,978.70
2022,12,27,14,23,978.73
2022,12,27,14,24,978.77
2022,12,27,14,25,978.77
2022,12,27,14,26,978.80
2022,12,27,14,27,978.84
2022,12,27,14,28,978.87
2022,12,27,14,29,978.94
2022,12,27,14,30,978.97
2022,12,27,14,31,978.94
2022,12,27,14,32,979.01
2022,12,27,14,33,979.01
2022,12,27,14,34,979.01
2022,12,27,14,35,979.04
2022,12,27,14,36,979.04
2022,12,27,14,37,979.07
2022,12,27,14,38,979.07
2022,12,27,14,39,979.14
2022,12,27,14,40,979.14
2022,12,27,14,41,979.21
2022,12,27,14,42,979.17
2022,12,27,14,43,979.21
2022,12,27,14,44,979.24
2022,12,27,14,45,979.24
2022,12,27,14,46,979.24
2022,12,27,14,47,979.28
2022,12,27,14,48,979.31
2022,12,27,14,49,979.34
2022,12,27,14,50,979.34
2022,12,27,14,51,979.41
2022,12,27,14,52,979.41
2022,12,27,14,53,979.45
2022,12,27,14,54,979.45
2022,12,27,14,55,979.48
2022,12,27,14,56,979.55
2022,12,27,14,57,979.55
2022,12,27,14,58,979.61
2022,12,27,14,59,979.58
2022,12,27,15,00,979.61
2022,12,27,15,01,979.68
2022,12,27,15,02,979.68
2022,12,27,15,03,979.72
2022,12,27,15,04,979.72
2022,12,27,15,05,979.75
2022,12,27,15,06,979.78
2022,12,27,15,07,979.78
2022,12,27,15,08,979.82
2022,12,27,15,09,979.85
2022,12,27,15,10,979.85
2022,12,27,15,11,979.89
2022,12,27,15,12,979.95
2022,12,27,15,13,980.02
2022,12,27,15,14,980.02
2022,12,27,15,15,980.09
2022,12,27,15,16,980.12
2022,12,27,15,17,980.12
2022,12,27,15,18,980.12
2022,12,27,15,19,980.16
2022,12,27,15,20,980.22
2022,12,27,15,21,980.22
2022,12,27,15,22,980.26
2022,12,27,15,23,980.29
2022,12,27,15,24,980.33
2022,12,27,15,25,980.39
2022,12,27,15,26,980.39
2022,12,27,15,27,980.43
2022,12,27,15,28,980.50
2022,12,27,15,29,980.53
2022,12,27,15,30,980.53
2022,12,27,15,31,980.60
2022,12,27,15,32,980.60
2022,12,27,15,33,980.66
2022,12,27,15,34,980.70
2022,12,27,15,35,980.70
2022,12,27,15,36,980.73
2022,12,27,15,37,980.80
2022,12,27,15,38,980.87
2022,12,27,15,39,980.94
2022,12,27,15,40,980.94
2022,12,27,15,41,980.97
2022,12,27,15,42,981.00
2022,12,27,15,43,981.04
2022,12,27,15,44,981.04
2022,12,27,15,45,981.10
2022,12,27,15,46,981.07
2022,12,27,15,47,981.14
2022,12,27,15,48,981.17
2022,12,27,15,49,981.17
2022,12,27,15,50,981.21
2022,12,27,15,51,981.24
2022,12,27,15,52,981.24
2022,12,27,15,53,981.31
2022,12,27,15,54,981.34
2022,12,27,15,55,981.34
2022,12,27,15,56,981.38
2022,12,27,15,57,981.41
2022,12,27,15,58,981.48
2022,12,27,15,59,981.41
2022,12,27,16,00,981.51
2022,12,27,16,01,981.51
2022,12,27,16,02,981.55
2022,12,27,16,03,981.58
2022,12,27,16,04,981.61
2022,12,27,16,05,981.61
2022,12,27,16,06,981.65
2022,12,27,16,07,981.71
2022,12,27,16,08,981.71
2022,12,27,16,09,981.71
2022,12,27,16,10,981.78
2022,12,27,16,11,981.82
2022,12,27,16,12,981.85
2022,12,27,16,13,981.82
2022,12,27,16,14,981.88
2022,12,27,16,15,981.92
2022,12,27,16,16,981.92
2022,12,27,16,17,981.95
2022,12,27,16,18,982.02
2022,12,27,16,19,982.02
2022,12,27,16,20,982.09
2022,12,27,16,21,982.09
2022,12,27,16,22,982.09
2022,12,27,16,23,982.15
2022,12,27,16,24,982.15
2022,12,27,16,25,982.19
2022,12,27,16,26,982.26
2022,12,27,16,27,982.29
2022,12,27,16,28,982.32
2022,12,27,16,29,982.36
2022,12,27,16,30,982.36
2022,12,27,16,31,982.39
2022,12,27,16,32,982.46
2022,12,27,16,33,982.49
2022,12,27,16,34,982.53
2022,12,27,16,35,982.59
2022,12,27,16,36,982.63